Location: Unspecified
(0.0000°N, 0.0000°E)
Time: 22:54:22
(UTC+00:00)

Altair - Visible Passes

Search period start: 19 November 2019 00:00
Search period end: 29 November 2019 00:00
Orbit: 1502 x 1682 km, 47.2° (Epoch: 17 November)

Date Brightness Start Highest point End Pass type
(mag) Time Alt. Az. Time Alt. Az. Time Alt. Az.
19 Nov 9.6 21:16:42 10° SSE 21:16:50 10° SSE 21:16:50 10° SSE visible
20 Nov 9.5 20:52:53 10° SSE 20:52:55 10° SSE 20:52:55 10° SSE visible
21 Nov 9.6 22:26:13 10° SSW 22:27:02 13° SSW 22:27:02 13° SSW visible
22 Nov 9.4 22:01:09 10° SSW 22:03:11 18° SSW 22:03:11 18° SSW visible
23 Nov 9.1 21:36:07 10° SSW 21:39:24 23° SSW 21:39:24 23° SSW visible
24 Nov 8.8 21:11:06 10° SSW 21:15:39 28° S 21:15:39 28° S visible
25 Nov 8.6 20:46:08 10° SSW 20:51:56 31° SSE 20:51:56 31° SSE visible
26 Nov 8.4 20:21:12 10° SSW 20:28:16 32° SSE 20:28:16 32° SSE visible
26 Nov 9.6 22:25:03 10° SW 22:26:18 15° WSW 22:26:18 15° WSW visible
27 Nov 8.4 19:56:18 10° S 20:04:32 30° SE 20:04:39 30° SE visible
27 Nov 9.2 21:59:42 10° SW 22:02:41 22° WSW 22:02:41 22° WSW visible
28 Nov 8.5 19:31:27 10° S 19:39:19 26° SE 19:41:05 25° ESE visible
28 Nov 8.7 21:34:23 10° SW 21:39:08 33° WSW 21:39:08 33° WSW visible
